#timestamp,LO_Frequency,Hit,StdDev 
1586037615.0,286047001.1,N
1586037615.9,286047001.1,N
1586037635.8,286046996.6,N
1586037655.6,286046999.0,N
1586037675.4,286046998.9,N
1586037695.3,286046996.8,N
1586037715.1,286046996.6,N
1586037735.8,286046998.5,N
1586037755.7,286047002.4,N
1586037775.5,286047001.7,N
1586037795.4,286047001.7,N
1586037815.2,286047001.5,N
1586037835.0,286047003.3,N
1586037835.9,286047003.3,N
1586037855.8,286047004.0,N
1586037875.6,286047003.5,N
1586037895.5,286047003.3,N
1586037915.3,286047004.2,N
1586037935.1,286047003.4,N
1586037955.9,286047006.0,N
1586037975.7,286047004.7,N
1586037995.5,286047005.9,N
1586038015.4,286047002.9,N
1586038035.2,286047005.4,N
1586038055.1,286047005.7,N
1586038056.0,286047005.7,N
1586038075.8,286047005.5,N
1586038095.6,286047006.0,N
1586038115.5,286047003.9,N
1586038135.3,286047003.9,N
1586038155.2,286047006.0,N
1586038175.9,286047006.7,N
1586038195.7,286047006.3,N
1586038215.6,286047005.0,N
1586038235.4,286047007.5,N
1586038255.2,286047005.2,N
1586038275.1,286047007.5,Y
1586038276.0,286047007.5,P
1586038295.8,286047002.0,N
1586038315.7,286047000.3,N
1586038335.5,286047004.1,N
1586038355.3,286047005.9,N
1586038375.2,286047003.3,N
1586038395.0,286047003.4,N
1586038395.9,286047003.4,N
1586038415.8,286047005.9,Y
1586038435.6,286047000.2,P
1586038455.4,286046998.9,N
1586038475.3,286046998.1,N
1586038495.1,286047000.8,N
1586038515.9,286046997.9,N
1586038535.7,286046996.9,N
1586038555.5,286046999.8,N
1586038575.4,286047002.4,N
1586038595.2,286046998.2,N
1586038615.0,286046999.2,N
1586038615.9,286046999.2,N
1586038635.8,286047001.1,N
1586038655.6,286046998.3,N
1586038675.5,286047000.4,N
1586038695.3,286047002.8,N
1586038715.1,286047002.0,N
1586038735.9,286047002.6,N
1586038755.7,286047002.0,N
1586038775.6,286047004.4,N
1586038795.4,286047003.5,N
1586038815.2,286047003.8,N
1586038835.1,286047001.8,N
1586038836.0,286047001.8,N
1586038855.8,286047002.4,N
1586038875.6,286047002.2,N
1586038895.5,286047004.2,N
1586038915.3,286047003.2,N
1586038935.2,286047001.8,N
1586038955.9,286047001.6,N
1586038975.7,286047001.6,N
1586038995.6,286047002.2,N
1586039015.4,286047001.3,N
1586039035.3,286046999.8,N
1586039055.1,286047002.0,N
1586039056.0,286047002.0,N
1586039075.8,286047002.8,N
1586039095.7,286047001.6,N
1586039115.5,286047001.3,N
1586039135.3,286047002.5,N
1586039155.2,286047001.7,N
1586039175.0,286046999.8,N
1586039175.9,286046999.8,N
1586039195.8,286047000.4,N
1586039215.6,286047000.1,N
1586039235.4,286047002.3,N
1586039255.3,286047001.6,N
1586039275.1,286047002.2,N
1586039295.9,286047004.4,Y
1586039315.7,286047002.6,P
1586039335.5,286047002.2,P
1586039355.4,286047000.2,N
1586039375.2,286046999.8,N
1586039395.0,286047002.7,N
1586039396.0,286047002.7,N
1586039415.8,286046999.7,N
1586039435.6,286047000.1,N
1586039455.5,286046999.0,N
1586039475.3,286047000.0,N
1586039495.1,286047002.7,N
1586039515.9,286047000.7,N
1586039535.7,286047000.5,N
1586039555.6,286047005.9,Y
1586039575.4,286047002.7,P
1586039595.2,286046999.8,N
1586039615.1,286047000.7,N
1586039616.0,286047000.7,N
1586039635.8,286047000.6,N
1586039655.7,286046999.2,N
1586039675.5,286047000.4,N
1586039695.3,286047000.2,N
1586039715.2,286047000.9,N
1586039735.0,286046999.9,N
1586039735.9,286046999.9,N
1586039755.8,286047000.9,N
1586039775.6,286046998.8,N
1586039795.4,286047001.0,N
1586039815.3,286047002.3,N
1586039835.1,286047004.4,Y
1586039855.8,286047001.5,P
1586039875.7,286047002.3,P
1586039895.5,286047000.8,N
1586039915.4,286047001.0,N
1586039935.2,286047002.3,Y
1586039955.0,286047000.3,P
1586039955.9,286047000.3,N
1586039975.8,286046999.6,N
1586039995.6,286046998.5,N
1586040015.5,286046998.8,N
1586040035.3,286046998.4,N
1586040055.1,286046997.6,N
1586040075.9,286046998.4,N
1586040095.7,286046998.3,N
1586040115.5,286046998.6,N
1586040135.4,286047001.0,N
1586040155.2,286047001.0,N
1586040175.1,286046999.0,N
1586040176.0,286046999.0,N
1586040195.8,286046998.4,N
1586040215.6,286046999.0,N
1586040235.5,286046999.2,N
1586040255.3,286046998.3,N
1586040275.2,286047000.9,N
1586040295.9,286046998.2,N
1586040315.7,286046998.1,N
1586040335.6,286046999.5,N
1586040355.4,286046996.5,Y
1586040375.3,286046998.1,P
1586040395.1,286046998.5,N
1586040396.0,286046998.5,P
1586040415.8,286047000.4,N
1586040435.7,286046999.3,N
1586040455.5,286047000.5,N
1586040475.3,286047000.6,N
1586040495.2,286046998.7,N
1586040515.0,286046998.6,N
1586040515.9,286046998.6,N
1586040535.8,286046999.4,N
1586040555.6,286047001.2,N
1586040575.5,286046998.7,N
1586040595.3,286046998.6,N
1586040615.1,286047002.4,N
1586040635.9,286047001.7,N
1586040655.7,286047000.1,N
1586040675.6,286047000.7,N
1586040695.4,286047001.9,N
1586040715.2,286047000.1,N
1586040735.1,286047002.7,N
1586040736.0,286047002.7,N
1586040755.8,286047002.0,N
1586040775.6,286047001.7,N
1586040795.5,286047002.5,N
1586040815.3,286047004.3,N
1586040835.2,286047000.0,N
1586040855.9,286047001.0,N
1586040875.7,286046998.4,N
1586040895.6,286046999.6,N
1586040915.4,286046998.4,N
1586040935.2,286047000.1,N
1586040955.1,286047002.6,N
1586040956.0,286047002.6,N
1586040975.8,286047002.1,N
1586040995.7,286047000.6,N
1586041015.5,286047004.4,N
1586041035.3,286047003.5,N
1586041055.2,286047001.3,N
1586041075.0,286046999.9,N
1586041075.9,286046999.9,N
1586041095.8,286047000.5,N
1586041115.6,286047000.4,N
1586041135.4,286046998.1,N
1586041155.3,286046998.7,N
1586041175.1,286047000.4,N
1586041195.9,286047000.6,N
